Time,TemperatureF,DewpointF,PressureIn,WindDirection,WindDirectionDegrees,WindSpeedMPH,WindSpeedGustMPH,Humidity,HourlyPrecipIn,Conditions,Clouds,dailyrainin,SolarRadiationWatts/m^2,SoftwareType,DateUTC
2014-10-20 00:00:00,60.0,58.0,-100.00,SSE,159,6.0,11.0,92,-99.99,,,0.00,0.000000,,2014-10-20 07:00:00,
2014-10-20 00:42:00,60.0,58.0,-100.00,SSE,159,6.0,11.0,92,-99.99,,,0.00,0.000000,,2014-10-20 07:42:00,
2014-10-20 00:52:00,60.0,58.0,-100.00,SSE,159,6.0,11.0,92,-99.99,,,0.00,0.000000,,2014-10-20 07:52:00,
2014-10-20 01:00:00,58.0,58.0,-100.00,NW,312,4.0,8.0,97,-99.99,,,0.02,0.000000,,2014-10-20 08:00:00,
2014-10-20 01:42:00,58.0,58.0,-100.00,NW,312,4.0,8.0,97,-99.99,,,0.02,0.000000,,2014-10-20 08:42:00,
2014-10-20 01:52:00,58.0,58.0,-100.00,NW,312,4.0,8.0,97,-99.99,,,0.02,0.000000,,2014-10-20 08:52:00,
2014-10-20 02:00:00,57.0,57.0,-100.00,SE,135,3.0,5.0,98,-99.99,,,0.03,0.000000,,2014-10-20 09:00:00,
2014-10-20 02:43:00,57.0,57.0,-100.00,SE,135,3.0,5.0,98,-99.99,,,0.03,0.000000,,2014-10-20 09:43:00,
2014-10-20 02:54:00,57.0,57.0,-100.00,SE,135,3.0,5.0,98,-99.99,,,0.03,0.000000,,2014-10-20 09:54:00,
2014-10-20 03:00:00,57.0,57.0,-100.00,ESE,121,4.0,7.0,98,-99.99,,,0.04,0.000000,,2014-10-20 10:00:00,
2014-10-20 03:53:00,57.0,57.0,-100.00,ESE,121,4.0,7.0,98,-99.99,,,0.04,0.000000,,2014-10-20 10:53:00,
2014-10-20 04:00:00,57.0,57.0,-100.00,NNW,338,2.0,4.0,98,-99.99,,,0.04,0.000000,,2014-10-20 11:00:00,
2014-10-20 04:42:00,57.0,57.0,-100.00,NNW,338,2.0,4.0,98,-99.99,,,0.04,0.000000,,2014-10-20 11:42:00,
2014-10-20 04:52:00,57.0,57.0,-100.00,NNW,338,2.0,4.0,98,-99.99,,,0.04,0.000000,,2014-10-20 11:52:00,
2014-10-20 05:00:00,58.0,57.0,-100.00,SSE,152,3.0,8.0,99,-99.99,,,0.04,0.000000,,2014-10-20 12:00:00,
2014-10-20 05:42:00,58.0,57.0,-100.00,SSE,152,3.0,8.0,99,-99.99,,,0.04,0.000000,,2014-10-20 12:42:00,
2014-10-20 05:52:00,58.0,57.0,-100.00,SSE,152,3.0,8.0,99,-99.99,,,0.04,0.000000,,2014-10-20 12:52:00,
2014-10-20 06:00:00,57.0,57.0,-100.00,ESE,111,4.0,7.0,99,-99.99,,,0.05,0.000000,,2014-10-20 13:00:00,
2014-10-20 06:42:00,57.0,57.0,-100.00,ESE,111,4.0,7.0,99,-99.99,,,0.05,0.000000,,2014-10-20 13:42:00,
2014-10-20 06:53:00,57.0,57.0,-100.00,ESE,111,4.0,7.0,99,-99.99,,,0.05,0.000000,,2014-10-20 13:53:00,
2014-10-20 07:00:00,57.0,57.0,-100.00,SSE,155,4.0,7.0,98,-99.99,,,0.05,0.000000,,2014-10-20 14:00:00,
2014-10-20 07:42:00,57.0,57.0,-100.00,SSE,155,4.0,7.0,98,-99.99,,,0.05,0.000000,,2014-10-20 14:42:00,
2014-10-20 07:52:00,57.0,57.0,-100.00,SSE,155,4.0,7.0,98,-99.99,,,0.05,0.000000,,2014-10-20 14:52:00,
2014-10-20 08:00:00,57.0,57.0,-100.00,SE,138,4.0,7.0,98,-99.99,,,0.05,4.300000,,2014-10-20 15:00:00,
2014-10-20 08:43:00,57.0,57.0,-100.00,SE,138,4.0,7.0,98,-99.99,,,0.05,4.300000,,2014-10-20 15:43:00,
2014-10-20 08:54:00,57.0,57.0,-100.00,SE,138,4.0,7.0,98,-99.99,,,0.05,4.300000,,2014-10-20 15:54:00,
2014-10-20 09:00:00,58.0,57.0,-100.00,SE,137,7.0,13.0,96,-99.99,,,0.05,43.349998,,2014-10-20 16:00:00,
2014-10-20 09:43:00,58.0,57.0,-100.00,SE,137,7.0,13.0,96,-99.99,,,0.05,43.349998,,2014-10-20 16:43:00,
2014-10-20 09:53:00,58.0,57.0,-100.00,SE,137,7.0,13.0,96,-99.99,,,0.05,43.349998,,2014-10-20 16:53:00,
2014-10-20 10:00:00,60.0,58.0,-100.00,SSE,152,7.0,13.0,95,-99.99,,,0.05,127.610001,,2014-10-20 17:00:00,
2014-10-20 10:43:00,60.0,58.0,-100.00,SSE,152,7.0,13.0,95,-99.99,,,0.05,127.610001,,2014-10-20 17:43:00,
2014-10-20 10:53:00,60.0,58.0,-100.00,SSE,152,7.0,13.0,95,-99.99,,,0.05,127.610001,,2014-10-20 17:53:00,
2014-10-20 11:00:00,60.0,59.0,-100.00,South,170,11.0,19.0,94,-99.99,,,0.05,217.330002,,2014-10-20 18:00:00,
2014-10-20 11:42:00,60.0,59.0,-100.00,South,170,11.0,19.0,94,-99.99,,,0.05,217.330002,,2014-10-20 18:42:00,
2014-10-20 11:52:00,60.0,59.0,-100.00,South,170,11.0,19.0,94,-99.99,,,0.05,217.330002,,2014-10-20 18:52:00,
2014-10-20 12:00:00,62.0,59.0,-100.00,South,170,11.0,19.0,92,-99.99,,,0.05,676.169983,,2014-10-20 19:00:00,
2014-10-20 12:42:00,62.0,59.0,-100.00,South,170,11.0,19.0,92,-99.99,,,0.05,676.169983,,2014-10-20 19:42:00,
2014-10-20 12:53:00,62.0,59.0,-100.00,South,170,11.0,19.0,92,-99.99,,,0.05,676.169983,,2014-10-20 19:53:00,
2014-10-20 13:00:00,60.0,57.0,-100.00,South,177,12.0,25.0,90,-99.99,,,0.05,417.000000,,2014-10-20 20:00:00,
2014-10-20 13:43:00,60.0,57.0,-100.00,South,177,12.0,25.0,90,-99.99,,,0.05,417.000000,,2014-10-20 20:43:00,
2014-10-20 13:52:00,60.0,57.0,-100.00,South,177,12.0,25.0,90,-99.99,,,0.05,417.000000,,2014-10-20 20:52:00,
2014-10-20 14:00:00,58.0,55.0,-100.00,South,172,10.0,23.0,87,-99.99,,,0.05,123.769997,,2014-10-20 21:00:00,
2014-10-20 14:43:00,58.0,55.0,-100.00,South,172,10.0,23.0,87,-99.99,,,0.05,123.769997,,2014-10-20 21:43:00,
2014-10-20 14:54:00,58.0,55.0,-100.00,South,172,10.0,23.0,87,-99.99,,,0.05,123.769997,,2014-10-20 21:54:00,
2014-10-20 15:00:00,55.0,52.0,-100.00,SE,131,4.0,9.0,91,-99.99,,,0.06,21.500000,,2014-10-20 22:00:00,
2014-10-20 15:43:00,55.0,52.0,-100.00,SE,131,4.0,9.0,91,-99.99,,,0.06,21.500000,,2014-10-20 22:43:00,
2014-10-20 15:53:00,55.0,52.0,-100.00,SE,131,4.0,9.0,91,-99.99,,,0.06,21.500000,,2014-10-20 22:53:00,
2014-10-20 16:00:00,57.0,52.0,-100.00,SE,128,7.0,12.0,83,-99.99,,,0.06,225.470001,,2014-10-20 23:00:00,
2014-10-20 16:42:00,57.0,52.0,-100.00,SE,128,7.0,12.0,83,-99.99,,,0.06,225.470001,,2014-10-20 23:42:00,
2014-10-20 16:53:00,57.0,52.0,-100.00,SE,128,7.0,12.0,83,-99.99,,,0.06,225.470001,,2014-10-20 23:53:00,
2014-10-20 17:42:00,59.0,52.0,-100.00,SE,137,7.0,12.0,77,-99.99,,,0.06,303.100006,,2014-10-21 00:42:00,
2014-10-20 17:52:00,59.0,52.0,-100.00,SE,137,7.0,12.0,77,-99.99,,,0.06,303.100006,,2014-10-21 00:52:00,